Location: B�hl
(48.6968°N, 8.1352°E)
Time: 11:11:20
(UTC+00:00)

Cosmos 1674 Rocket - Pass Details

Date: 08 March 2021
Orbit: 602 x 630 km, 82.5° (Epoch: 10 April)

Event Time Altitude Azimuth Distance (km) Brightness Sun altitude
Rises 18:48:14 0° 358° (N) 2,869 7.1 -15.0°
Reaches altitude 10° 18:50:40 10° 8° (N) 1,960 6.2 -15.4°
Maximum altitude 18:54:33 31° 72° (ENE) 1,059 4.3 -16.0°
Enters shadow 18:55:17 30° 92° (E) 1,102 4.3 -16.1°
